Theta_e
302 302 302 302 303 303 303 304 303 304 304 304 303 303 303 304 303 303 304 303 303 303 303 302 301 299 299 299 298 299 299 299 302 306 309 311 311 309 307 304 303 303 303 302 304 308 311 312 313 314 316 316 315 315 314 315 317 318 319 317 317 317 318 320 321 321 321 323 323 323 324 324 324 325 325 324 325 325 323 325 323 326 323 329 342 341 340 338
302 302 302 302 303 303 304 304 303 304 304 303 302 300 301 303 303 303 304 303 304 304 303 303 301 299 298 298 298 298 298 301 305 309 310 310 308 306 305 304 303 303 303 305 310 312 313 314 314 314 315 316 315 314 314 315 316 318 318 317 317 318 320 320 321 322 322 322 323 324 324 324 324 325 326 324 325 324 324 325 322 326 323 330 340 336 336 336
302 303 303 302 302 302 303 303 303 302 303 302 301 300 300 302 303 303 303 303 303 303 303 302 300 299 298 299 299 298 300 305 309 311 311 308 307 306 305 303 302 302 304 308 311 312 313 315 315 315 316 316 315 315 314 315 316 317 318 318 318 319 320 321 322 322 322 322 323 324 324 324 324 324 326 324 324 324 324 324 323 325 322 328 336 332 331 333
303 302 302 302 302 302 302 302 301 301 302 301 302 302 301 302 303 303 303 303 302 301 301 300 299 299 299 299 299 300 304 309 312 314 312 308 307 306 302 300 301 302 305 309 310 311 313 315 316 317 317 316 315 314 315 315 316 316 317 317 318 319 320 320 321 321 322 322 322 323 323 324 325 323 324 325 323 323 323 325 323 324 324 323 335 339 332 332
302 302 301 302 302 302 302 301 301 301 301 301 301 303 302 301 302 302 302 302 301 300 300 300 299 299 299 299 300 303 307 312 313 314 312 310 309 306 300 300 301 301 304 309 310 311 312 314 315 317 318 319 316 314 314 316 316 316 317 317 318 320 319 320 321 321 321 321 322 323 322 322 325 323 324 324 323 323 323 324 323 324 324 322 336 343 337 337
302 302 302 302 302 302 302 301 301 302 302 301 302 303 302 301 300 301 301 301 300 300 300 301 300 299 299 299 301 306 309 310 310 312 312 310 309 305 301 300 300 301 305 309 309 310 312 313 315 316 318 319 317 315 314 315 316 315 316 317 318 319 319 320 320 321 321 321 322 322 323 322 323 323 324 324 323 324 323 323 323 323 327 330 339 343 344 345
303 302 302 302 302 302 303 302 302 302 303 302 303 303 302 300 299 298 299 299 300 300 300 301 300 300 299 298 302 308 309 309 310 312 310 308 307 305 302 299 300 303 307 308 308 310 313 314 315 316 316 317 317 316 315 315 315 315 315 317 318 318 318 320 321 321 321 321 321 321 322 322 323 322 323 324 323 324 323 323 322 324 330 334 338 340 345 349
303 303 302 302 303 303 303 303 302 302 303 302 302 303 302 302 300 299 298 298 299 300 301 301 300 300 299 300 305 308 308 309 311 310 308 307 306 305 301 301 303 305 307 307 308 310 313 315 316 316 315 316 317 316 315 314 315 315 315 317 317 318 318 320 320 320 320 321 322 321 322 321 322 322 323 324 323 324 324 323 322 323 328 331 333 333 338 347
303 303 302 302 303 303 303 303 303 302 302 302 302 303 303 303 302 301 300 299 299 299 300 300 300 300 300 303 306 308 308 308 309 307 306 306 305 303 303 303 304 305 307 307 307 309 310 313 315 316 316 316 317 315 315 314 314 315 315 317 317 317 318 319 319 320 319 320 320 321 321 321 322 322 322 322 322 323 323 323 322 321 323 325 331 331 331 339
303 303 302 302 302 303 303 303 303 303 302 302 302 303 303 303 302 301 300 299 299 298 298 299 300 300 302 304 306 307 308 307 306 306 306 305 304 304 303 304 305 306 307 307 307 308 309 311 313 315 315 316 316 315 315 314 313 315 316 316 317 317 318 319 319 319 319 320 320 320 320 321 322 321 320 322 323 323 323 322 322 321 323 320 326 332 330 333
301 302 302 302 302 303 303 303 303 303 302 301 302 302 302 302 302 301 300 299 298 298 298 298 299 301 303 304 306 306 306 306 306 305 305 305 304 304 304 304 305 305 306 306 307 307 308 310 312 313 314 315 315 315 316 315 314 315 315 315 316 317 317 318 318 319 319 319 320 320 320 320 321 320 320 322 322 322 322 322 323 321 323 320 325 337 340 339
300 300 301 302 302 302 302 302 302 301 301 301 301 300 300 301 301 301 300 298 297 297 298 298 298 301 303 304 305 305 304 305 306 306 305 306 305 306 305 305 305 305 305 306 306 307 307 309 310 311 313 314 314 315 315 315 315 315 315 314 315 316 316 317 317 318 319 319 320 319 318 319 319 320 321 322 322 322 322 321 322 321 322 322 323 339 350 347
300 300 300 300 300 301 302 302 301 300 301 302 301 300 299 300 300 301 299 298 297 297 298 298 298 301 303 305 305 303 303 304 305 306 306 306 306 306 306 305 305 304 305 305 305 306 307 308 309 311 312 313 314 314 315 316 315 315 315 314 314 315 314 317 318 317 318 318 320 319 315 317 319 320 321 322 322 321 322 321 321 322 321 324 320 333 351 349
300 300 301 301 300 301 302 302 302 301 302 303 302 301 301 300 300 300 299 297 297 298 298 298 299 302 304 305 304 303 304 305 305 306 306 306 306 306 305 304 304 304 304 304 305 305 306 307 308 310 311 312 314 314 315 316 315 315 315 314 314 312 313 316 317 317 317 317 319 319 314 315 319 320 321 321 322 321 322 321 321 322 320 324 322 328 349 349
300 301 301 301 301 300 301 302 302 302 303 303 303 303 302 301 301 300 298 297 298 298 298 299 300 302 304 305 304 305 306 306 306 306 306 306 306 306 305 304 304 304 304 304 304 305 305 306 307 309 311 311 312 313 314 315 316 315 314 314 313 312 312 315 318 316 317 317 319 318 314 316 319 319 321 321 321 321 320 321 320 322 321 324 324 325 343 348
301 301 301 301 301 301 301 301 301 302 303 303 304 304 304 303 302 300 298 298 299 300 300 300 301 303 305 306 306 306 306 306 306 306 306 306 305 305 305 305 305 304 304 304 304 305 305 306 306 308 310 311 311 312 314 315 316 315 314 313 312 312 313 314 317 317 317 317 318 318 316 317 318 319 321 320 321 321 320 322 320 322 322 324 327 324 333 345
300 300 301 301 301 301 301 302 302 302 303 303 304 304 305 304 302 300 300 301 303 304 303 303 304 305 305 305 305 306 307 307 307 306 305 305 304 304 304 304 305 304 304 304 304 305 305 306 306 307 309 310 311 312 314 316 316 315 314 313 313 313 313 312 316 317 318 318 317 318 317 317 318 318 320 319 320 323 321 321 321 321 322 324 327 324 327 343
299 300 300 300 301 301 301 302 302 302 302 303 304 305 305 304 302 302 303 304 305 305 305 305 304 305 306 306 306 307 307 306 306 305 304 304 304 304 304 304 304 305 305 305 306 306 305 306 306 306 308 309 310 312 314 315 315 314 313 313 313 314 313 313 314 316 317 317 316 318 317 316 317 318 320 320 319 322 322 321 322 321 322 325 325 325 327 339
300 300 300 300 301 301 301 302 302 302 302 302 303 304 306 306 304 304 305 306 307 306 306 307 306 306 307 307 307 307 306 306 305 305 304 304 304 304 304 304 304 305 305 305 305 306 306 305 305 306 307 308 309 311 313 314 314 315 314 313 313 313 314 314 315 317 317 316 316 317 317 317 317 317 318 319 319 320 320 321 322 320 322 324 325 328 328 335
300 300 300 300 301 301 301 301 302 302 302 302 303 305 307 308 307 307 307 307 307 306 307 307 307 307 307 307 307 307 307 306 306 306 305 304 304 304 304 304 304 305 304 304 305 306 306 305 304 305 307 308 309 310 312 313 314 316 315 314 314 313 313 315 316 317 317 316 316 317 317 316 317 318 318 320 320 320 321 322 323 322 323 324 326 330 329 334
300 300 300 301 301 301 301 301 302 302 301 302 302 304 308 307 306 306 306 305 306 306 306 306 306 306 306 306 306 306 306 306 306 306 305 304 304 304 304 304 304 304 304 304 305 306 306 305 304 305 307 308 309 310 311 312 313 315 315 314 313 313 313 316 316 317 317 317 316 317 317 316 317 318 318 319 319 320 321 322 324 322 322 324 326 329 330 334
300 300 301 301 301 301 301 302 302 302 303 303 304 305 307 306 305 305 304 305 305 305 305 306 306 306 306 306 306 306 306 306 306 306 305 305 304 303 304 304 304 304 305 305 305 304 305 304 304 305 306 308 309 310 311 312 313 313 315 314 313 314 314 315 316 317 317 316 316 317 316 316 317 318 318 319 318 319 320 321 324 322 322 324 326 328 329 335
301 301 301 301 301 301 301 302 302 303 304 305 305 306 306 305 304 304 304 305 305 306 306 306 306 306 306 307 306 306 306 306 306 306 305 304 304 303 304 304 304 304 304 304 304 304 304 304 305 305 306 308 308 310 311 311 312 313 314 314 313 314 314 313 314 316 317 316 316 317 317 317 318 318 319 320 319 319 320 321 322 321 322 324 324 327 328 336
301 301 301 301 301 301 301 302 303 305 305 305 305 305 305 305 304 304 304 305 305 306 307 307 307 307 307 307 306 306 306 306 305 306 305 305 305 304 303 303 303 304 304 304 304 304 303 304 306 305 305 308 308 310 312 311 312 312 314 314 314 315 315 314 314 316 316 316 317 317 316 315 318 318 318 319 320 320 322 324 323 322 323 323 324 326 328 336
302 302 301 301 301 301 301 303 305 305 305 305 305 305 305 304 304 304 304 305 306 307 307 308 307 306 306 306 305 305 305 306 306 306 305 305 305 305 304 304 303 303 303 303 304 303 304 305 306 306 305 307 309 310 312 312 311 312 313 314 315 315 316 315 316 316 313 313 316 317 313 314 317 318 318 318 320 320 322 324 323 323 325 325 326 325 328 340
302 302 301 302 302 302 302 304 305 304 304 305 305 305 304 304 305 304 304 305 307 308 307 307 306 306 306 306 306 305 305 305 306 305 305 305 305 305 304 304 303 303 303 303 303 303 304 305 306 306 306 307 309 310 311 312 312 312 313 314 315 316 316 316 315 314 311 311 315 317 314 314 316 317 319 319 319 319 321 323 323 325 327 327 327 325 332 343
302 302 302 303 303 302 302 304 304 304 305 305 305 304 304 305 304 303 305 307 308 309 308 307 306 306 306 306 305 305 305 305 305 305 305 305 305 304 304 304 303 303 303 303 303 303 304 305 305 306 307 307 309 310 311 313 312 312 314 314 315 315 316 316 316 313 313 314 315 317 315 313 313 315 319 319 319 319 320 321 323 326 327 327 327 326 334 341
303 303 303 303 303 304 303 303 303 304 305 305 305 304 304 304 304 304 306 309 310 309 308 308 307 306 305 306 306 305 306 305 305 305 305 304 304 304 303 303 303 303 302 303 303 304 304 305 305 306 308 308 309 310 311 312 313 313 314 315 314 316 316 317 316 314 315 314 313 314 315 313 312 315 320 319 318 319 319 320 321 325 327 327 326 326 335 340
303 303 303 303 304 305 305 304 303 304 305 305 304 304 304 304 304 304 306 309 310 309 309 309 308 307 306 306 306 306 306 306 306 305 304 304 304 304 303 303 303 303 303 302 302 304 306 306 306 306 308 309 309 311 312 312 313 313 314 315 315 316 316 317 316 314 314 314 313 313 314 313 311 314 317 318 317 318 320 321 321 324 327 327 327 328 334 339
303 303 303 303 305 306 306 306 305 305 305 305 304 304 305 304 304 307 309 310 310 309 309 308 307 307 307 306 306 307 306 306 306 305 304 304 304 303 303 303 303 302 302 302 303 304 305 307 307 307 308 309 310 311 312 312 313 313 314 315 314 315 316 317 318 314 314 314 313 313 314 314 312 313 316 318 319 319 320 321 321 325 327 326 329 329 332 338
303 303 303 303 304 305 306 307 306 305 305 305 305 304 305 305 305 308 311 311 309 308 307 308 308 307 307 306 306 307 306 306 307 306 305 304 304 304 303 302 302 302 302 303 303 304 305 306 307 308 309 310 310 311 312 312 313 313 314 315 314 315 316 316 316 315 314 314 313 313 314 314 311 312 316 319 321 320 320 321 320 324 326 327 329 329 332 337
303 303 303 303 305 305 306 307 306 305 305 305 305 305 305 307 307 308 310 310 309 308 307 307 308 307 307 307 307 306 306 306 306 306 305 304 303 303 302 302 302 302 302 303 304 305 305 306 307 309 310 310 310 311 312 312 313 313 314 314 314 314 315 315 314 314 314 313 313 314 314 313 312 314 318 320 321 321 321 321 320 323 327 329 330 330 332 335
303 304 305 305 306 306 306 306 306 305 305 305 305 305 305 308 310 310 309 309 309 308 307 308 308 307 308 308 307 306 306 306 305 305 305 304 303 303 303 302 302 303 303 304 305 306 306 307 308 308 310 311 311 312 312 312 313 313 313 314 314 314 316 317 314 313 313 312 313 314 314 312 313 315 319 320 321 322 321 322 322 324 328 330 330 330 332 333
304 305 306 306 306 307 307 306 306 305 305 305 305 305 306 309 310 309 309 309 308 308 308 307 308 308 308 308 307 306 306 306 305 305 304 304 303 304 303 302 302 303 304 305 306 307 308 309 309 309 310 311 311 312 312 312 312 313 314 315 314 313 315 316 314 312 313 312 312 314 314 312 312 316 320 321 321 323 322 321 322 325 329 330 330 330 331 332
305 307 307 307 307 307 307 307 306 305 305 305 305 306 308 310 310 309 310 309 308 308 307 307 308 308 308 308 307 307 306 305 305 305 304 304 303 303 303 302 302 303 304 306 308 308 308 309 309 310 311 311 311 311 312 313 313 313 314 314 314 314 315 314 314 314 313 313 313 314 314 314 316 320 321 320 321 322 322 321 323 327 329 328 329 330 331 333
306 308 307 308 308 307 307 306 305 305 305 305 305 307 309 310 309 309 309 309 307 307 307 307 308 308 308 307 307 308 306 305 305 305 304 303 303 303 303 304 304 303 304 306 308 308 308 309 309 310 311 311 311 312 312 313 313 314 314 313 314 315 316 314 314 315 315 315 315 313 313 315 317 319 321 320 320 321 321 322 322 327 329 329 330 332 331 334
307 308 308 309 308 307 307 306 305 305 306 305 306 308 308 309 309 309 309 309 308 306 306 308 309 307 306 307 307 307 306 305 305 305 304 304 304 304 304 304 305 304 304 306 307 309 309 310 310 310 310 310 311 312 312 312 313 314 313 314 315 316 316 315 315 315 315 315 315 313 312 313 313 317 322 322 321 324 324 323 325 327 330 330 331 332 331 333
307 308 309 309 308 307 306 305 306 306 306 306 306 308 308 308 310 310 309 310 308 306 306 307 308 306 305 306 307 306 305 305 305 304 304 304 304 305 304 304 305 305 305 306 308 309 309 310 311 309 310 311 311 312 312 312 313 314 314 314 315 315 315 314 315 316 315 315 314 313 312 313 312 315 321 321 321 326 327 325 325 326 328 331 331 331 332 335
308 308 309 309 308 307 306 306 306 306 306 307 307 308 309 309 310 310 310 310 307 305 306 307 309 308 305 305 306 305 304 305 305 304 304 304 304 306 305 305 306 306 306 307 308 308 310 311 312 309 310 311 311 312 313 313 314 313 314 315 315 316 315 314 315 315 314 314 315 314 313 313 315 318 321 320 322 325 327 327 327 326 327 330 330 331 333 337
309 309 310 309 308 308 306 306 307 307 306 307 308 309 309 309 310 310 310 310 308 306 307 308 309 310 308 307 307 305 304 304 304 304 305 304 304 305 306 305 305 306 307 308 308 309 310 311 312 310 310 312 311 312 313 313 313 313 313 314 314 315 316 316 315 313 314 314 315 315 315 314 317 322 321 321 324 326 327 329 328 327 328 328 330 331 335 338
309 311 312 309 307 307 307 307 308 308 308 309 309 309 309 309 309 310 310 311 310 308 308 308 308 310 310 309 309 307 305 305 304 304 305 305 304 305 306 306 306 307 308 308 308 309 311 312 312 312 312 312 311 311 313 313 313 313 313 314 314 314 314 315 315 314 313 314 314 316 315 315 319 324 322 323 326 326 327 328 328 328 328 328 330 332 336 341
310 312 312 309 307 307 308 309 310 310 310 310 310 310 310 310 310 310 310 311 311 310 309 308 308 309 310 309 309 308 306 305 305 305 306 305 305 306 307 307 307 308 309 308 309 311 313 313 313 313 312 312 312 312 313 313 313 313 313 314 316 316 315 315 316 315 314 314 314 314 315 316 322 328 327 326 326 324 325 327 327 328 326 328 331 334 338 341
311 312 312 310 308 308 309 310 310 310 310 310 310 310 310 311 310 310 310 310 311 310 309 309 308 309 310 309 309 310 309 307 306 306 306 307 306 307 307 307 308 308 309 308 309 312 313 313 313 312 311 311 312 312 312 313 313 313 314 315 315 316 316 316 318 317 316 315 313 314 316 317 323 330 330 327 326 324 325 326 326 328 329 331 334 336 339 340
310 310 312 312 309 309 310 310 310 310 310 310 310 310 311 311 310 310 310 310 311 310 309 309 309 309 310 309 310 311 310 309 308 307 307 308 308 308 308 308 308 309 308 309 311 313 313 313 313 312 313 314 313 313 313 313 313 313 313 314 315 317 318 319 320 319 317 315 314 315 315 317 324 330 329 327 325 324 325 325 324 327 332 336 337 336 336 337
308 310 312 312 311 310 310 311 310 310 310 310 310 310 311 311 311 310 310 310 311 310 309 309 310 310 311 310 310 311 310 309 310 309 308 308 308 308 309 308 308 308 308 311 313 313 313 314 314 313 314 314 314 314 313 313 314 313 313 313 315 316 317 319 320 318 317 316 315 315 315 318 325 327 325 326 325 325 327 326 325 328 332 336 337 335 334 335
309 310 309 310 310 310 310 311 311 310 310 310 310 310 311 311 310 310 310 310 310 310 309 310 311 311 311 311 312 311 311 310 310 310 310 309 309 309 309 309 308 308 309 312 312 312 313 314 315 314 313 314 314 313 313 313 313 313 313 313 314 317 317 319 320 318 318 317 316 318 318 320 322 323 324 326 325 325 329 329 328 329 330 333 335 334 333 334
309 308 308 308 308 309 310 311 311 311 310 311 311 311 311 311 311 311 311 310 310 309 309 310 311 311 310 311 312 312 311 311 311 311 310 310 310 310 310 309 308 309 311 311 310 312 313 314 314 314 314 314 314 313 313 314 313 313 313 313 314 316 318 321 320 318 319 319 318 322 323 320 321 323 323 324 326 328 328 329 329 330 331 333 334 333 334 334
307 307 308 307 306 308 310 310 310 310 310 311 311 311 311 311 311 312 311 311 311 310 310 310 310 310 311 311 312 312 312 311 311 312 312 312 311 310 311 309 308 310 311 310 310 314 315 315 314 314 315 314 315 315 313 314 314 313 314 314 315 315 319 321 319 318 321 321 321 324 325 322 322 325 325 324 327 328 327 327 328 331 334 334 334 334 334 334
305 305 306 305 305 307 308 309 310 311 311 311 311 311 311 311 312 312 312 312 312 311 310 309 310 310 310 310 311 312 313 312 312 313 313 314 313 312 311 309 309 311 311 310 312 316 315 315 315 315 315 314 314 315 314 313 313 313 314 314 316 316 317 318 320 320 323 324 324 325 326 325 326 329 331 330 331 329 327 329 330 331 333 332 332 333 333 334
303 303 303 303 303 306 308 310 311 311 311 311 311 311 311 311 312 312 312 313 313 311 310 310 311 311 311 311 312 313 313 313 313 314 314 315 314 312 312 310 310 311 311 310 314 316 315 315 315 315 315 315 314 314 314 314 313 314 314 314 315 316 316 318 322 324 323 322 325 326 325 326 327 329 331 332 334 330 327 331 334 333 334 332 331 332 333 335
301 301 301 301 302 306 308 309 311 311 311 311 311 311 311 311 312 312 312 313 313 313 312 311 310 311 312 314 314 314 314 314 314 314 314 315 314 313 312 312 312 312 311 311 315 316 315 314 315 315 315 315 315 315 315 314 313 314 314 314 314 315 316 319 323 324 322 321 323 324 324 325 328 330 331 332 334 331 329 331 333 333 334 334 332 332 333 335
299 300 301 301 303 305 307 309 311 311 311 311 311 311 311 312 312 312 313 313 313 314 315 313 311 311 313 315 315 315 315 315 315 315 315 314 314 313 313 313 314 313 311 312 314 316 316 316 316 317 316 315 315 315 315 315 315 315 316 315 315 316 316 318 322 324 323 321 322 323 325 326 329 331 331 333 335 333 331 330 331 331 331 331 331 331 331 332
Wind_Speed
13 13 14 13 14 14 14 15 15 16 15 16 16 16 15 15 15 15 15 15 15 16 16 17 18 19 19 18 18 18 17 13 9 8 11 14 12 11 11 9 9 11 9 6 4 6 9 11 13 13 13 15 16 18 19 20 22 18 12 11 13 13 15 15 15 16 15 15 15 21 25 19 16 16 17 19 17 13 20 23 14 14 14 12 22 15 12 12
14 14 14 14 14 14 15 15 15 16 16 16 16 16 15 14 14 14 15 14 15 16 16 17 17 18 18 17 17 18 17 15 16 14 15 13 8 8 8 9 11 11 6 2 3 7 9 10 12 13 16 16 17 18 18 20 22 17 9 11 14 13 17 18 19 20 19 19 17 19 24 22 18 19 16 14 14 18 20 18 14 14 14 14 24 14 8 7
15 15 15 15 15 15 15 15 15 15 16 17 17 16 14 13 14 14 14 14 15 15 16 16 16 17 17 15 15 15 16 20 19 13 13 7 4 4 7 13 12 7 5 4 6 9 10 11 12 13 18 17 18 20 19 20 20 20 15 12 15 15 18 24 26 26 24 23 22 21 22 22 21 24 19 13 14 20 19 14 16 20 19 17 23 18 12 9
15 15 15 15 15 15 15 16 16 16 16 17 17 16 15 14 14 14 14 14 14 15 15 15 16 17 15 15 13 13 18 20 11 7 8 5 4 7 13 13 9 6 4 6 10 11 11 13 13 14 17 17 20 21 19 20 18 18 18 14 16 18 19 26 31 29 27 28 29 26 23 22 21 24 22 17 16 14 17 15 18 20 21 21 22 27 18 13
16 16 16 16 16 16 16 17 16 16 16 16 17 16 16 14 14 14 14 14 14 14 15 15 16 17 16 15 11 12 17 11 2 4 9 7 10 14 15 11 8 6 4 6 11 11 11 13 14 15 16 14 17 18 19 25 22 15 18 22 23 22 20 24 30 30 29 30 31 25 22 23 22 23 26 23 16 11 19 21 18 18 19 19 22 31 21 17
17 17 17 17 17 17 17 17 17 17 16 16 16 17 16 15 15 15 15 15 15 15 15 15 17 17 17 16 12 12 11 6 4 9 11 11 17 18 14 12 9 7 6 8 11 10 11 12 14 16 15 13 15 16 18 27 25 14 16 25 30 30 24 23 29 29 31 32 28 22 24 29 24 23 28 26 19 16 22 28 21 13 7 6 22 25 21 20
17 17 17 17 17 18 18 18 18 17 17 17 16 17 17 16 16 16 16 16 15 15 15 16 17 18 19 17 14 11 11 11 8 9 11 15 19 17 14 12 9 7 7 10 11 10 10 12 15 17 14 12 15 17 19 25 27 19 16 21 28 32 28 28 31 28 32 33 28 29 28 28 24 23 27 27 23 23 25 25 22 9 11 20 21 15 16 18
16 17 17 17 17 17 19 19 19 18 18 18 18 18 18 18 17 17 18 18 17 16 15 15 16 18 18 17 15 11 12 11 6 7 13 16 16 16 14 10 8 7 9 9 10 10 10 12 15 16 13 13 16 17 20 21 22 22 20 21 25 29 29 32 34 32 34 32 30 33 29 30 31 25 24 26 27 24 23 20 18 16 9 20 24 17 14 15
16 17 17 17 17 17 19 19 20 20 19 19 19 19 19 19 18 18 18 18 18 17 17 16 16 17 15 14 12 12 10 5 1 6 11 10 9 11 10 8 7 8 9 9 10 10 10 11 13 15 14 16 17 18 21 19 16 20 23 24 24 25 27 29 31 35 37 34 31 28 28 34 38 28 23 32 34 29 25 18 16 20 20 13 22 25 19 17
17 17 18 17 17 18 19 20 20 20 20 19 19 19 20 19 19 19 19 18 18 17 18 17 16 16 12 10 10 8 6 5 3 6 7 7 8 9 8 8 8 9 10 11 10 10 12 11 12 14 15 18 19 18 22 19 16 22 26 26 26 25 27 28 29 34 34 34 35 28 24 28 33 24 18 34 40 31 30 25 17 18 25 25 17 27 24 19
18 18 18 18 18 19 19 20 20 21 21 21 21 21 21 21 20 19 19 18 17 17 17 17 16 13 10 10 11 10 7 5 5 6 7 9 10 10 10 10 10 11 11 12 12 11 13 12 13 13 12 13 16 19 22 23 23 26 27 23 25 27 28 28 27 30 27 27 38 35 26 25 26 21 22 34 33 28 31 32 26 19 24 27 14 23 25 22
19 18 19 19 19 20 20 21 21 22 23 23 23 23 23 23 20 19 19 17 16 16 16 17 15 11 10 13 19 18 12 10 11 11 12 13 14 14 13 13 13 13 13 14 14 12 12 13 13 14 13 11 12 14 16 24 27 26 25 19 21 24 24 28 26 29 26 20 31 32 23 24 24 25 33 33 24 25 30 32 32 22 22 22 16 20 24 24
19 19 20 20 20 21 21 22 22 23 23 23 23 23 23 21 19 18 18 16 15 15 16 16 15 11 11 17 23 20 16 16 17 17 17 18 18 17 16 16 16 16 16 16 16 13 13 12 14 17 19 17 14 12 14 20 25 23 22 16 17 17 17 26 28 29 27 20 27 25 16 21 24 29 36 28 24 29 29 30 27 20 24 20 18 19 23 22
19 19 20 20 21 21 21 22 22 22 23 23 23 23 21 19 18 17 16 16 14 14 15 15 14 9 12 20 22 20 17 18 19 18 17 17 17 18 17 17 17 17 17 18 17 15 14 13 15 16 18 19 18 17 17 16 17 17 17 14 13 13 13 21 24 26 25 21 29 26 15 18 21 26 34 30 27 30 32 32 23 20 27 20 17 18 21 21
19 19 20 20 21 21 21 21 21 22 23 23 23 22 20 17 16 15 15 14 13 14 14 14 12 9 15 22 20 17 15 15 19 20 17 16 16 17 17 16 17 17 17 18 17 15 15 15 16 15 15 18 18 15 12 11 11 12 13 14 13 13 13 18 21 24 23 21 27 25 14 15 18 22 32 33 30 33 33 32 25 24 25 17 17 18 20 21
19 20 20 21 21 21 21 21 21 22 24 24 23 22 19 14 13 14 13 12 11 12 11 12 11 10 12 14 12 11 13 14 17 14 14 16 16 17 15 15 17 17 17 17 16 15 14 15 17 17 15 14 13 11 9 9 10 11 13 13 14 16 14 14 17 23 26 22 23 25 15 11 15 20 28 31 33 38 32 30 30 28 24 19 20 21 19 22
20 20 20 21 21 22 22 22 22 22 24 24 22 21 17 12 11 11 9 7 7 7 9 9 10 12 14 13 11 11 12 15 14 7 9 12 13 14 14 15 16 16 17 17 16 16 15 15 15 14 13 11 10 11 10 11 11 11 13 13 15 19 15 14 14 20 28 24 21 24 20 16 15 18 26 30 31 30 28 32 30 25 25 23 24 24 21 23
20 21 21 21 21 22 22 23 22 22 24 24 22 20 16 9 9 11 8 5 4 5 10 10 8 8 13 18 16 12 10 12 9 6 6 8 11 13 14 15 14 13 15 15 16 18 15 15 13 10 10 11 11 12 13 15 15 14 14 12 13 17 17 17 15 16 25 24 20 22 22 23 21 18 22 28 30 26 27 32 28 24 26 25 26 26 24 23
21 21 22 21 22 22 22 23 22 22 23 23 22 18 12 6 9 11 9 8 8 8 8 10 15 10 8 12 15 15 14 13 12 10 9 8 11 12 13 15 14 15 15 11 14 19 15 12 12 10 10 13 16 18 18 18 18 17 16 14 14 15 16 18 17 17 22 21 22 24 22 22 22 21 21 23 29 29 30 29 26 26 26 25 26 27 27 24
21 22 22 22 22 22 23 24 22 22 21 22 21 15 11 8 4 6 4 10 15 14 15 15 18 21 18 19 18 18 18 17 17 19 16 12 13 13 14 14 14 15 13 11 12 17 16 10 11 13 15 19 20 22 23 21 20 19 17 17 18 17 16 17 19 21 21 19 20 25 23 22 22 23 23 24 26 23 25 23 25 26 25 23 25 27 28 26
21 22 22 22 22 22 23 24 23 20 18 16 16 12 11 12 7 6 9 12 18 20 25 25 23 27 28 26 24 22 21 20 21 22 19 17 16 14 15 15 13 11 12 16 14 13 15 11 13 19 20 22 21 22 24 23 23 21 18 17 17 17 16 18 20 23 22 17 17 22 23 23 22 21 21 24 24 19 20 18 23 27 26 25 25 27 28 25
21 21 22 22 23 23 23 24 21 15 10 9 7 9 11 11 10 12 15 16 21 24 26 27 25 27 28 26 23 20 21 20 20 20 18 18 17 14 15 15 13 11 12 15 12 11 12 13 19 23 21 21 21 22 24 25 24 20 16 15 14 14 15 17 20 22 21 13 13 20 21 19 21 21 19 22 21 21 28 24 26 29 27 27 26 26 28 26
22 21 22 23 23 23 24 23 15 7 6 7 5 8 11 12 12 13 13 14 20 24 25 24 24 27 26 22 17 15 18 18 18 19 18 19 19 18 16 14 13 14 13 13 13 11 11 14 21 22 20 21 23 23 24 23 20 18 16 14 14 16 16 14 18 22 21 16 14 17 16 14 17 21 19 21 23 25 31 24 28 30 27 27 27 26 29 28
22 23 23 23 23 23 23 17 7 4 7 8 8 10 10 11 11 12 12 11 14 18 18 19 21 22 18 11 8 11 15 16 17 17 16 21 23 19 16 16 15 14 14 16 18 16 15 18 20 21 22 23 23 23 23 19 15 19 21 16 15 19 20 15 16 20 19 19 18 15 12 11 15 20 17 19 22 23 23 19 24 25 26 27 28 28 28 30
22 23 24 23 22 22 18 11 7 6 8 8 8 8 8 9 9 10 10 9 9 9 9 11 11 8 6 4 5 8 13 16 18 17 16 21 23 17 15 17 14 13 16 19 18 16 17 22 21 20 23 24 23 21 22 19 13 17 23 23 20 20 23 20 19 19 14 15 18 16 11 9 14 20 18 16 17 20 18 17 19 23 26 27 29 29 27 30
22 23 23 21 20 19 13 7 5 7 7 5 4 6 7 7 9 9 6 5 5 3 7 8 6 3 3 6 7 8 10 12 16 18 17 18 21 19 14 13 12 13 17 16 13 9 12 21 23 20 22 25 23 19 22 23 15 13 19 25 26 24 23 23 23 19 11 11 16 17 11 7 10 17 19 18 18 21 20 17 20 24 27 28 28 29 28 33
23 22 20 17 15 15 10 4 6 6 4 4 5 7 8 7 7 7 4 4 3 2 4 4 3 1 3 6 6 7 6 5 8 15 19 17 17 19 15 11 11 13 13 10 8 8 12 19 22 22 22 21 19 16 21 24 17 12 17 24 27 27 24 23 23 17 11 12 14 18 14 9 9 14 19 21 19 22 22 19 19 22 27 28 28 29 29 36
23 20 15 13 11 11 10 7 7 5 4 6 7 7 7 7 7 5 4 4 1 1 1 3 2 4 5 6 8 12 11 9 7 6 13 15 16 17 15 14 14 14 13 9 8 11 14 18 20 22 20 16 16 17 21 25 19 15 18 23 26 25 23 19 18 16 14 13 12 16 17 10 9 11 17 21 21 22 23 21 19 21 26 29 29 30 31 37
22 17 11 9 9 11 12 8 4 4 6 7 7 6 6 6 6 3 3 3 1 1 2 3 2 3 5 8 10 15 15 12 8 4 7 13 16 16 12 13 16 16 15 13 12 11 12 18 22 21 16 14 17 19 24 24 19 17 21 24 23 22 21 16 14 14 14 12 12 17 19 12 9 10 13 18 19 19 19 19 18 21 27 29 29 30 33 39
20 13 8 6 8 10 10 8 5 5 6 7 6 5 7 6 3 4 3 2 1 2 3 2 2 5 9 11 10 11 11 11 9 8 13 15 16 18 14 14 14 13 13 13 14 13 14 21 23 18 15 15 18 20 24 24 21 21 21 21 20 17 16 14 12 15 12 10 15 21 22 16 10 10 12 13 15 17 16 16 17 21 27 29 29 30 32 38
17 9 6 6 6 4 6 6 7 6 5 6 5 4 7 4 2 4 3 1 2 2 2 3 3 8 12 11 7 5 6 9 7 7 12 12 12 15 13 11 10 8 9 9 10 13 16 18 16 14 19 19 19 18 21 23 23 21 16 15 15 12 12 12 12 13 10 10 17 21 23 20 12 9 12 13 16 20 18 17 18 20 25 28 29 29 31 38
14 6 4 5 4 3 3 6 7 6 4 4 5 5 5 3 2 4 2 3 3 1 1 3 5 9 11 11 9 7 7 7 6 8 11 9 8 10 10 8 7 7 8 7 7 10 14 14 12 13 19 20 16 13 15 19 20 18 14 13 12 10 10 10 11 11 10 12 17 20 21 18 12 10 13 15 18 22 19 18 20 21 24 28 30 30 32 38
9 5 4 4 4 4 4 8 8 5 3 3 5 5 4 3 3 4 5 5 2 1 2 4 8 13 13 10 9 10 9 6 7 9 11 11 9 9 12 13 12 10 6 5 7 8 9 11 13 12 14 18 16 11 11 14 17 17 14 11 11 11 9 9 11 11 11 12 16 21 19 13 11 11 14 16 15 20 21 21 24 27 28 29 32 33 33 36
6 5 6 4 4 3 5 10 8 3 2 3 4 4 4 4 4 6 8 6 2 2 3 6 11 15 14 10 9 8 6 6 8 9 10 10 9 7 10 14 16 11 5 4 6 7 8 7 10 12 9 13 17 15 11 12 16 16 13 12 12 11 9 9 11 11 11 11 15 19 15 10 9 10 13 17 14 18 25 25 27 30 31 31 32 34 33 35
5 7 7 6 6 3 4 7 5 3 4 3 3 4 3 5 5 6 7 4 3 4 5 9 14 13 10 7 7 7 5 4 6 8 8 8 7 7 8 11 15 12 5 3 3 6 10 7 10 15 10 10 16 17 15 13 13 14 13 13 13 13 10 7 8 9 8 8 10 11 9 7 7 7 15 18 18 16 23 23 25 27 30 30 30 32 32 33
6 8 7 8 7 4 4 6 4 2 3 3 4 4 4 6 5 5 5 3 2 3 8 12 9 6 6 4 3 6 5 4 5 6 6 8 9 10 10 8 11 12 8 5 4 5 9 7 10 17 13 14 18 17 17 14 10 12 13 13 13 16 13 6 7 8 6 7 8 8 8 8 8 6 13 18 18 14 19 19 20 24 29 29 27 30 31 32
5 6 9 8 5 5 6 5 3 3 4 3 4 5 5 7 7 5 5 3 1 0 5 8 3 0 5 4 1 4 5 4 6 5 5 7 8 10 12 8 8 12 12 10 7 5 5 5 10 18 16 17 19 18 18 19 15 10 12 14 14 16 13 7 6 6 6 7 7 10 13 11 10 6 7 14 15 15 19 18 18 21 26 26 25 29 31 32
5 7 11 7 4 7 6 3 3 4 6 5 6 8 6 7 10 10 5 1 2 2 3 4 1 2 3 5 2 3 5 3 4 5 5 5 4 7 11 9 9 12 12 11 6 5 5 5 9 19 16 14 15 15 14 20 23 16 14 15 13 12 12 9 6 6 9 8 6 12 15 11 9 7 8 14 15 15 17 16 17 20 21 22 25 30 30 32
7 8 9 6 4 7 4 5 3 5 5 4 5 7 6 9 15 16 10 1 3 1 3 5 4 2 3 5 5 0 5 4 2 3 3 4 4 4 7 8 9 12 13 13 8 6 5 3 5 15 16 13 11 11 10 12 18 18 16 15 12 9 10 10 7 7 8 7 6 11 12 8 8 10 13 15 14 14 14 11 13 16 20 23 26 29 30 33
9 8 8 6 4 4 4 4 4 5 5 4 5 6 7 10 15 18 18 8 2 3 3 3 6 5 4 5 5 3 4 4 3 4 3 5 5 4 6 8 7 9 14 14 9 6 3 0 2 10 15 13 9 9 11 10 11 13 13 13 11 9 8 9 9 8 8 7 6 7 7 7 7 10 13 14 12 13 13 11 11 13 22 27 28 31 33 34
9 8 7 6 7 5 4 4 5 6 5 5 6 6 8 11 14 19 20 11 4 8 5 4 7 7 6 6 5 4 4 4 5 5 3 5 6 4 6 10 8 9 11 11 9 7 3 1 3 6 9 9 9 11 15 15 13 12 11 11 12 10 8 9 9 9 9 7 7 6 6 7 6 7 11 12 11 13 14 13 11 13 24 28 29 33 36 36
9 5 3 2 3 3 4 5 7 7 5 6 7 8 11 12 12 17 17 10 5 6 6 6 8 7 7 6 4 5 5 5 5 4 4 5 6 5 7 13 14 11 7 7 6 4 6 2 5 7 8 9 13 14 17 19 18 16 13 12 13 10 8 8 8 8 9 9 10 8 5 6 5 4 10 10 10 12 15 14 11 15 25 28 30 34 37 36
11 8 5 4 3 2 5 6 6 4 5 10 12 14 15 10 9 14 15 11 7 3 4 4 5 6 6 5 5 5 4 6 5 4 6 6 6 8 9 13 16 12 6 5 3 3 7 2 5 6 7 9 12 14 17 20 18 16 13 12 11 9 10 9 6 6 7 9 11 8 5 7 6 5 8 11 11 11 14 16 15 15 22 27 31 35 37 35
18 16 9 6 3 3 5 6 7 6 8 12 14 15 15 10 9 13 13 11 8 3 3 3 3 5 5 4 6 6 3 4 4 5 8 8 5 9 12 13 14 10 7 4 3 2 1 0 2 4 5 7 9 11 13 15 14 10 9 13 13 12 14 10 4 5 7 11 13 8 5 6 6 7 9 13 14 12 13 17 17 15 23 29 32 34 36 34
18 15 7 4 4 6 7 6 7 7 8 12 14 15 14 10 12 15 13 10 8 6 5 5 6 8 6 3 3 5 5 5 4 4 5 7 7 10 13 12 12 11 9 8 11 7 3 1 3 5 5 6 7 8 9 10 9 7 10 16 16 15 15 9 3 4 5 10 14 9 6 6 8 9 10 12 14 13 12 16 16 17 24 30 32 33 34 34
12 8 5 4 4 8 11 11 10 8 7 10 10 11 12 11 13 16 12 6 4 8 9 8 7 7 6 4 2 3 5 7 8 6 5 6 8 9 11 10 12 14 11 6 7 6 3 3 7 8 7 8 9 12 13 12 10 10 14 18 16 15 16 7 2 4 5 7 8 4 8 11 11 10 9 9 11 13 13 13 14 17 22 28 33 33 33 33
9 6 7 8 7 8 8 8 7 6 9 12 7 8 12 13 12 13 8 2 4 9 9 6 5 5 7 8 5 3 4 6 9 9 8 9 8 11 13 9 12 13 7 3 4 4 2 3 7 9 8 7 9 16 19 17 16 15 16 18 17 18 15 5 1 6 7 3 2 7 11 10 11 11 10 9 9 10 12 12 14 18 22 27 32 32 31 32
7 7 8 8 6 6 7 10 11 11 14 13 8 8 12 15 13 11 7 5 6 7 5 4 5 7 11 10 5 3 3 4 7 8 7 7 8 11 12 9 12 9 4 4 6 3 1 4 4 6 9 10 12 18 21 19 17 16 15 16 18 18 13 6 6 9 5 1 5 10 9 6 8 7 6 8 7 7 13 15 18 22 26 28 28 29 29 30
9 8 9 10 8 10 14 17 17 14 12 9 6 9 13 15 15 14 10 9 8 4 1 5 9 8 11 10 6 3 2 2 4 5 4 5 7 9 7 7 10 8 6 6 4 5 2 3 5 8 9 10 13 15 20 20 17 15 15 15 16 17 15 11 7 4 3 8 9 10 9 6 5 6 5 5 5 4 12 14 19 26 28 27 26 26 26 28
11 8 10 14 12 14 19 18 15 11 9 7 8 12 13 14 16 15 12 11 9 3 2 7 13 13 12 11 6 4 5 1 3 3 3 3 4 7 5 5 6 7 7 6 3 5 1 4 6 8 7 7 12 12 14 20 18 14 14 15 15 15 15 12 4 3 7 9 10 10 9 6 6 7 7 10 10 4 12 12 18 24 26 26 25 25 24 25
11 8 9 12 10 10 14 13 11 9 7 7 10 12 13 14 16 15 13 10 10 8 5 7 12 13 12 9 6 3 5 3 4 5 5 4 5 5 4 4 5 5 7 5 3 3 1 4 5 6 5 5 7 11 14 18 19 14 13 16 17 13 11 9 5 3 5 7 8 9 7 5 5 5 4 6 8 4 9 13 15 20 24 25 24 25 26 26
13 10 9 9 8 10 12 11 9 7 7 9 12 13 13 16 18 16 10 7 10 12 12 8 8 8 8 8 7 5 4 3 3 6 6 6 8 6 4 9 11 4 4 4 1 1 1 3 4 5 4 5 8 11 14 14 15 10 9 14 17 14 12 9 6 5 6 5 4 5 5 5 7 4 1 1 3 4 6 13 16 18 22 24 24 26 27 28
Wind_Direction
347 347 345 346 345 343 343 343 342 343 342 341 340 339 338 338 339 336 337 336 334 336 335 338 339 339 347 352 352 345 343 345 342 351 319 286 266 269 277 293 317 323 307 277 284 281 267 256 243 236 232 229 226 226 226 224 226 227 225 229 233 235 233 233 236 241 251 252 239 238 247 249 246 238 219 232 247 232 246 256 233 201 212 157 123 140 160 151
345 345 344 342 342 340 340 338 338 338 335 335 335 334 332 333 334 333 333 331 333 334 333 335 334 336 341 349 351 341 337 339 339 327 299 288 290 274 269 305 329 343 346 10 328 287 268 254 240 228 223 226 224 220 221 219 219 224 227 230 231 233 235 235 238 240 245 256 257 246 244 243 239 246 231 212 233 236 235 251 250 216 211 156 132 149 175 172
344 343 340 339 338 336 335 333 332 329 327 329 332 333 331 330 331 330 329 329 331 329 331 332 330 332 334 348 349 337 338 333 329 305 277 286 301 289 302 314 326 351 15 17 320 286 273 262 253 237 226 226 224 219 216 214 216 222 224 233 233 230 236 236 238 241 242 248 256 254 251 246 235 238 236 208 218 241 235 219 236 238 225 192 150 163 205 202
340 338 336 335 333 332 330 326 325 321 322 326 330 334 331 328 326 326 325 325 325 323 325 324 325 326 330 348 348 344 339 325 312 263 265 270 266 316 320 316 339 7 5 330 303 284 276 265 260 252 237 229 224 222 220 213 211 220 223 234 235 230 234 234 236 242 241 243 248 251 256 257 244 240 242 227 210 241 258 227 224 235 231 220 162 153 188 192
339 338 335 334 332 330 327 324 322 318 319 323 328 332 329 324 318 318 318 318 318 317 318 318 322 322 329 344 353 355 337 325 18 269 280 274 277 308 318 318 332 350 8 321 298 284 271 257 252 250 242 236 225 221 224 217 216 224 228 235 236 232 237 235 234 238 239 245 250 247 249 256 253 246 245 242 222 219 255 250 233 237 249 236 163 146 168 174
340 338 336 335 332 330 328 324 322 319 317 320 327 328 324 320 313 312 311 311 313 312 314 316 319 320 328 339 356 358 318 305 6 287 277 287 288 300 315 319 311 330 358 316 296 284 264 249 241 239 237 238 230 224 225 220 219 229 233 234 235 234 239 237 233 234 236 243 251 246 243 248 252 252 246 243 234 213 237 258 254 234 243 165 140 143 156 158
337 335 335 333 332 331 328 325 322 320 318 319 322 321 320 316 310 308 306 306 307 309 312 313 318 321 326 337 353 348 282 280 308 265 267 288 287 295 310 318 319 325 318 296 288 280 262 245 234 234 236 234 234 231 229 226 224 229 236 234 235 235 236 238 238 238 237 237 241 242 246 248 247 254 252 245 236 209 207 243 262 233 127 118 132 147 149 152
333 331 331 329 330 329 325 323 321 317 314 313 314 313 313 313 312 309 306 306 307 309 311 312 317 318 326 339 348 332 288 282 289 263 281 292 290 297 308 319 324 303 284 281 280 281 273 255 237 234 238 237 237 236 233 233 229 229 235 235 237 237 234 235 238 241 243 241 237 234 239 245 243 248 255 249 245 233 210 211 241 245 184 140 148 162 161 166
328 327 326 325 326 324 322 321 319 316 312 311 313 311 309 309 311 312 310 310 308 306 306 309 310 312 325 334 322 308 292 271 276 297 297 303 303 302 307 309 301 279 271 277 275 272 268 262 249 239 244 247 246 242 235 234 232 231 234 235 237 237 235 234 234 235 239 242 242 238 234 235 235 239 250 244 239 243 239 216 213 239 247 210 165 170 181 183
324 322 321 321 321 320 318 317 316 315 313 312 311 309 307 306 306 310 314 312 307 303 303 303 304 308 318 313 297 289 272 242 267 295 278 277 290 293 291 285 285 275 268 274 270 261 257 259 262 259 261 257 252 249 240 235 238 238 238 236 236 239 238 236 235 233 232 235 239 243 247 242 239 238 244 242 234 232 244 246 227 218 243 251 197 169 177 184
321 320 320 320 320 317 314 313 313 314 314 311 306 304 304 305 307 310 314 312 302 297 296 298 301 302 300 286 264 252 251 258 282 286 267 270 280 283 279 273 276 272 267 271 267 261 258 258 267 271 267 256 250 252 248 245 246 245 245 242 235 236 237 236 237 234 231 231 230 235 248 247 244 242 238 239 231 224 234 249 248 219 231 245 196 155 165 176
320 320 320 319 318 316 313 309 309 310 311 310 306 304 304 306 308 310 310 306 296 290 290 295 297 295 294 273 250 252 265 269 274 276 269 271 274 273 272 270 266 264 266 267 266 264 261 260 263 260 259 264 253 248 252 249 248 248 246 246 238 232 231 232 234 233 232 231 226 230 243 239 233 236 241 237 225 226 229 242 250 233 232 232 188 160 158 166
321 319 318 317 316 316 316 314 311 310 312 313 309 306 308 308 308 308 306 300 292 287 288 292 293 291 284 264 256 269 281 273 272 273 267 264 266 267 266 265 261 259 259 260 262 264 263 260 257 256 260 268 262 266 282 258 245 245 242 242 242 235 227 225 226 229 232 232 223 223 234 233 227 229 239 235 221 231 237 245 248 237 245 232 192 181 158 161
322 321 320 319 317 316 318 318 316 315 315 314 311 311 311 308 306 304 299 293 288 286 288 291 289 280 262 265 279 290 283 273 268 263 262 260 260 263 263 261 258 256 252 253 257 258 259 259 260 261 259 260 264 276 289 269 240 234 236 237 233 234 230 220 218 219 225 226 219 223 232 230 228 224 230 232 226 232 240 246 241 230 244 227 192 193 161 163
325 324 323 322 319 317 318 319 318 318 316 315 315 314 311 307 303 297 292 290 291 291 292 290 281 262 259 272 291 295 281 270 263 258 256 256 257 258 259 259 255 252 249 249 251 251 251 252 254 257 252 252 259 266 271 267 246 222 224 229 221 226 230 222 216 211 218 220 213 224 237 226 229 225 226 228 227 232 239 245 237 224 233 208 194 208 173 168
326 325 324 323 321 319 318 317 317 316 317 319 320 316 312 307 295 289 286 286 295 297 287 279 262 242 259 285 293 280 271 257 251 256 255 249 251 253 255 259 255 247 244 242 242 244 242 241 243 246 250 246 243 244 245 249 241 221 218 221 216 219 222 222 215 206 217 220 207 219 233 228 227 226 228 226 225 227 229 242 237 222 224 206 199 215 193 173
327 325 324 324 323 321 319 317 316 314 317 322 321 318 316 304 280 276 270 278 314 299 271 267 252 235 244 268 284 280 275 257 236 225 250 247 242 251 254 254 253 243 236 234 232 234 234 233 235 238 241 240 230 225 229 226 219 214 216 219 218 217 216 216 212 205 214 216 205 216 228 233 230 225 229 230 230 221 214 230 230 216 221 213 203 214 205 179
328 326 324 322 321 320 319 319 317 314 318 322 321 318 316 296 261 262 258 277 317 262 252 251 234 245 248 243 252 267 285 285 259 209 237 249 239 250 254 250 252 243 232 228 225 225 226 226 226 230 226 226 227 218 217 217 214 212 209 214 217 217 216 212 215 209 204 203 206 219 227 229 229 232 229 226 228 225 220 223 214 210 219 210 206 210 203 185
328 326 324 321 319 319 318 319 317 318 322 322 322 323 323 294 242 247 246 246 243 220 235 227 203 216 274 265 260 267 275 283 274 242 231 249 254 250 247 248 247 240 234 225 218 217 218 220 220 225 222 217 217 217 221 220 221 222 216 216 214 217 221 211 216 216 195 193 210 220 228 227 222 229 235 228 224 226 232 220 195 205 217 208 206 202 200 194
326 323 322 321 320 320 320 318 318 324 325 320 327 338 348 345 266 233 225 234 241 243 258 256 228 233 264 281 281 280 277 268 261 255 243 245 258 248 238 239 237 236 234 231 224 211 211 221 220 219 221 221 219 221 228 229 231 232 223 220 215 217 223 210 214 220 200 194 212 217 225 228 219 221 229 234 233 229 233 215 183 198 214 209 205 194 199 196
325 323 324 323 323 322 320 318 320 327 325 318 326 327 331 350 348 317 318 286 267 261 262 265 260 257 265 273 276 278 275 267 259 256 247 242 249 244 231 224 223 229 227 233 242 222 213 225 228 225 225 225 225 225 227 229 232 235 230 224 216 215 223 214 212 217 208 202 211 212 219 226 222 222 218 226 239 234 236 221 178 191 207 209 208 194 195 191
325 325 326 324 323 322 317 318 324 330 329 326 318 289 294 332 340 318 314 297 279 270 263 263 265 264 265 266 270 269 265 262 258 252 242 238 239 232 225 220 217 226 225 229 241 235 225 230 230 229 228 228 230 226 224 226 228 233 236 229 219 211 217 224 220 215 213 212 209 206 215 224 225 229 218 217 229 227 239 232 182 186 201 204 210 198 193 183
327 326 325 324 323 320 317 322 332 345 360 358 322 287 292 315 325 316 309 294 283 276 263 253 249 248 249 252 253 250 249 250 253 248 231 221 221 218 225 233 230 233 234 229 233 236 234 231 227 229 230 227 230 228 222 221 224 230 235 233 226 212 206 218 222 214 213 220 213 203 214 221 222 231 222 216 219 225 238 221 177 186 197 201 211 203 194 180
328 327 325 325 322 319 322 333 1 43 6 344 314 302 301 311 321 321 312 288 279 281 263 240 236 238 241 250 244 236 248 252 252 250 226 215 222 222 225 237 241 240 239 235 237 241 243 238 226 222 227 226 226 228 221 215 218 225 229 233 229 217 211 212 217 212 211 222 212 197 216 222 216 224 220 213 215 224 227 189 170 188 195 203 212 205 198 179
329 328 326 326 323 322 334 3 43 23 340 315 308 314 312 315 317 321 319 290 275 272 235 214 225 232 225 245 254 249 263 261 250 248 233 221 224 228 226 228 236 246 243 240 241 241 242 240 230 220 222 224 224 225 221 213 212 221 225 231 235 228 216 207 213 210 202 219 205 188 213 223 212 219 217 211 208 220 217 180 183 195 196 211 211 203 196 172
332 331 329 329 329 330 345 27 20 338 327 319 325 325 319 315 308 316 320 286 280 222 172 179 201 199 209 244 267 267 268 264 250 244 237 228 223 226 232 227 226 242 247 245 241 243 244 236 231 227 221 220 223 225 221 214 209 218 220 225 235 242 227 206 210 215 199 213 198 182 209 229 213 215 213 210 202 214 216 189 192 196 200 214 206 198 184 160
336 334 333 337 342 342 340 316 299 312 334 336 327 317 316 315 309 319 307 262 267 209 160 146 178 279 276 265 269 256 260 294 273 237 223 225 223 222 231 233 228 235 244 254 241 233 242 235 229 228 222 217 220 222 220 215 211 216 214 217 228 240 237 210 207 218 205 207 196 183 202 230 228 210 203 207 203 210 214 197 192 194 201 208 199 196 176 156
338 335 336 347 2 1 343 314 296 301 315 313 316 313 310 318 318 314 291 280 284 161 159 87 32 323 290 283 270 253 264 288 291 242 214 218 219 217 225 233 239 242 233 233 241 232 235 237 228 223 222 215 217 223 221 215 214 215 209 217 227 234 238 220 211 222 209 205 204 192 197 217 239 213 193 201 204 208 210 201 194 192 200 203 196 193 170 155
338 336 339 358 20 8 350 344 321 292 302 304 312 312 298 314 323 288 252 282 336 78 8 3 342 294 273 284 268 253 261 261 254 265 244 229 216 218 234 236 241 253 242 228 240 242 236 241 234 223 221 217 213 222 226 217 210 216 212 214 222 228 237 237 226 224 211 204 213 205 198 204 235 222 196 197 203 208 206 201 196 191 198 200 193 191 172 161
337 337 336 350 18 5 339 340 337 310 300 293 300 314 299 303 312 265 242 252 293 26 4 312 296 297 291 290 268 249 255 250 243 249 245 233 217 219 236 244 241 250 251 241 245 249 247 254 250 228 215 224 223 222 227 219 207 214 217 209 211 219 231 242 231 218 210 204 213 214 205 201 221 223 206 198 196 202 201 200 197 187 196 199 191 190 177 165
337 337 337 339 3 351 296 316 340 321 290 282 295 319 301 288 250 265 277 256 258 333 334 271 303 311 297 295 284 250 244 243 238 236 235 229 218 215 221 235 237 235 244 247 255 258 249 254 260 230 209 222 236 227 222 218 209 213 216 199 199 212 222 226 216 210 214 208 207 213 211 205 213 220 212 203 192 196 200 201 196 183 192 197 189 189 179 166
338 340 341 338 356 10 290 302 319 312 297 279 292 313 305 284 235 247 298 331 277 330 346 264 290 300 292 297 290 261 249 238 215 222 234 229 220 217 214 215 211 213 230 231 240 256 247 240 250 234 211 216 234 231 218 215 209 211 211 197 196 203 209 209 201 201 218 217 202 206 215 212 213 218 216 212 194 190 198 201 192 183 190 194 188 189 181 169
342 356 354 341 351 10 322 292 293 304 307 267 278 294 285 274 278 278 314 330 311 43 352 280 289 294 290 291 280 264 257 239 213 223 231 228 227 218 213 218 214 211 227 231 228 235 231 229 238 234 213 212 223 224 212 204 201 206 206 201 200 192 190 195 197 200 209 216 202 200 215 222 215 212 217 225 203 182 193 199 187 182 189 194 191 189 182 173
356 11 356 338 328 318 291 292 299 303 269 259 272 276 261 264 284 311 321 331 342 321 297 287 295 297 291 273 260 265 263 231 210 220 228 227 232 226 213 218 218 219 237 250 242 229 218 216 220 223 211 205 217 226 223 204 197 205 206 205 201 192 193 193 195 201 200 206 201 197 209 220 211 195 203 232 228 180 185 192 181 179 187 193 191 188 184 177
20 10 345 333 338 325 283 294 301 281 248 246 272 273 265 270 290 328 332 341 348 316 295 293 293 293 291 272 257 264 274 250 206 210 229 227 225 231 222 212 209 213 233 261 264 230 228 231 202 203 205 203 215 229 239 228 202 199 205 205 198 194 200 197 197 206 199 199 202 200 208 213 217 187 180 220 240 192 176 182 177 177 184 189 185 182 182 178
8 355 320 314 326 319 293 285 269 247 242 243 275 276 270 287 315 351 334 322 342 320 308 307 301 287 288 282 261 254 240 237 222 212 228 232 233 230 221 212 204 200 194 213 271 238 224 237 190 182 194 210 215 223 235 240 211 192 201 200 198 204 207 201 202 206 195 199 203 203 205 200 217 205 177 208 228 185 166 179 185 181 181 182 178 178 182 176
6 339 305 300 291 284 290 275 230 209 231 242 266 283 294 300 309 318 307 315 24 351 307 313 326 64 301 305 283 243 216 206 223 227 229 225 232 227 216 211 203 205 201 205 252 272 242 254 189 178 189 208 220 226 232 245 241 204 194 199 203 212 213 207 206 201 193 202 199 199 205 196 195 197 182 206 208 169 164 184 192 184 179 177 175 178 180 172
346 318 297 281 268 293 284 226 205 221 242 256 259 270 279 289 303 318 329 43 129 166 240 280 263 154 289 320 16 189 210 218 206 217 239 232 237 229 213 202 196 213 219 204 221 273 275 279 191 183 188 199 219 225 223 246 247 217 192 201 205 204 203 200 205 204 195 197 201 199 201 195 188 185 185 200 197 169 165 183 191 183 175 174 175 176 172 163
322 301 271 236 262 297 236 183 213 234 251 273 262 272 291 303 313 324 329 336 140 174 232 254 275 242 257 309 352 159 220 257 235 207 236 226 225 227 210 203 196 206 213 202 211 262 270 282 185 183 185 184 203 216 211 240 242 217 199 201 203 206 202 192 200 210 197 195 204 196 192 198 198 185 181 188 189 175 163 177 196 181 169 173 176 173 165 158
310 288 248 209 219 267 212 186 232 236 242 257 258 284 314 317 314 314 316 319 176 207 249 271 290 294 278 292 321 294 236 254 236 212 225 217 217 229 215 213 209 216 214 199 207 259 260 64 200 186 183 181 190 210 214 224 227 214 204 198 200 214 209 196 203 213 203 197 201 192 187 204 198 176 176 178 174 173 171 182 197 174 166 174 174 167 160 156
308 283 252 210 192 217 231 225 243 244 243 255 260 284 314 315 309 308 314 321 235 224 234 266 282 286 289 300 318 294 259 252 222 203 223 225 224 246 219 205 213 227 217 197 203 227 197 102 254 196 177 191 202 204 216 229 224 208 204 201 200 207 208 199 196 201 205 199 200 200 188 200 202 167 170 172 161 167 180 189 190 169 168 172 168 161 157 157
297 272 267 258 197 217 265 268 263 247 252 299 305 309 318 313 305 309 317 321 286 241 216 247 277 282 286 295 307 300 291 277 239 210 242 231 216 236 208 196 216 229 213 209 220 172 118 88 250 207 181 196 203 206 221 235 227 212 212 212 202 202 215 209 188 191 204 196 195 203 188 199 221 159 152 159 157 168 180 183 183 173 171 169 161 155 154 157
306 305 315 310 292 275 279 290 301 287 301 326 324 320 322 315 305 317 326 331 322 271 214 243 274 280 291 302 302 307 316 294 265 242 273 267 221 230 218 198 214 231 219 216 248 101 116 156 245 212 185 195 202 210 228 238 229 211 210 217 212 205 212 218 194 179 202 201 192 191 186 198 202 164 149 149 161 180 177 175 184 176 162 155 150 149 151 155
311 302 280 255 255 278 282 300 328 328 321 325 325 325 328 326 321 329 336 340 340 326 264 263 262 277 293 306 303 305 310 287 263 246 269 282 251 240 235 206 202 227 235 177 153 220 202 159 246 210 180 189 196 203 222 234 230 217 213 222 222 204 203 218 204 176 206 209 195 181 185 194 163 151 157 151 165 187 175 174 186 165 141 141 142 146 151 154
308 298 271 225 210 242 269 294 311 309 315 324 324 323 328 331 333 339 340 333 340 349 320 287 279 284 277 254 278 297 288 266 270 283 282 288 287 265 244 210 190 223 234 152 145 194 224 84 226 217 183 181 186 196 214 217 219 237 229 218 213 198 201 218 214 195 208 201 199 192 171 151 111 128 159 154 164 184 173 175 181 155 141 144 145 148 153 153
304 309 333 323 274 259 266 269 267 269 306 331 322 315 327 332 330 340 344 334 346 347 324 294 287 295 298 299 296 284 269 250 256 279 286 275 277 269 247 208 194 223 230 150 146 199 206 191 224 225 201 188 180 191 208 206 202 221 220 211 208 201 205 218 254 232 216 199 210 175 129 127 116 132 164 161 167 181 172 169 171 161 156 151 147 152 155 154
294 320 357 343 312 295 294 287 279 288 318 331 318 298 320 328 327 339 346 289 309 336 322 287 286 328 336 330 319 271 253 249 255 263 269 269 268 276 274 237 206 218 217 168 208 236 297 250 232 227 229 236 205 193 203 208 202 206 211 208 207 205 203 202 255 233 226 215 165 113 116 131 139 149 171 181 184 179 164 165 171 164 157 148 145 151 154 152
324 330 355 358 312 294 321 323 315 312 313 315 301 292 320 331 332 337 335 300 308 335 335 282 275 316 327 327 321 284 246 234 250 254 262 266 261 271 271 235 209 205 181 222 227 172 5 295 265 238 248 268 247 208 202 209 205 198 204 207 206 205 197 189 230 242 244 54 100 118 118 136 148 140 161 198 211 173 156 166 168 150 138 137 142 151 156 155
354 328 337 353 326 293 295 294 290 294 301 306 309 322 332 334 333 334 331 321 318 329 350 273 276 300 312 308 306 286 258 213 222 231 259 277 271 271 256 215 216 206 191 232 220 114 102 286 288 266 250 265 267 230 201 202 205 198 200 203 203 202 195 194 222 244 117 87 88 99 92 77 60 38 20 319 299 183 156 144 137 135 134 138 143 151 160 159
6 343 329 334 321 293 288 288 289 296 314 338 343 338 334 331 334 334 323 316 314 301 201 262 285 302 300 291 292 269 260 256 159 204 263 280 272 269 245 211 221 212 205 216 137 92 39 265 262 260 246 249 272 264 220 204 203 201 200 201 201 203 200 189 172 89 111 110 102 104 99 78 43 24 3 334 323 221 170 139 124 132 140 145 149 154 163 163
358 337 322 321 312 296 295 296 295 302 335 356 342 335 334 332 334 329 318 310 304 306 304 270 282 303 304 303 328 299 250 213 164 204 235 248 267 269 253 264 267 231 213 207 120 88 291 284 265 249 250 237 240 266 254 214 197 201 207 199 197 210 217 187 151 116 120 129 134 125 108 93 72 33 348 320 317 261 175 156 147 151 155 159 161 162 166 167
349 339 333 318 295 291 296 291 292 316 347 346 338 339 334 330 332 332 329 312 299 319 342 320 276 282 302 324 351 348 306 270 224 221 213 221 246 248 266 290 290 278 221 215 145 128 211 330 297 241 239 230 206 235 251 218 192 200 211 197 193 208 223 200 160 140 135 149 161 126 89 95 116 112 313 298 296 269 189 163 164 168 169 172 171 168 171 173